Regional Weather Roundup
Issued by NWS Bismarck, ND

Current Version | Previous Version | Text Only | Print | Product List | Glossary On
Versions: 1 2 3 4 5 6 7 8 9 10 11 12 13 14 15 16 17 18 19 20 21 22 23 24 25 26 27 28 29 30 31 32 33 34 35 36 37 38 39 40 41 42 43 44 45 46 47 48 49 50
406
ASUS43 KBIS 241810
RWRBIS

NWR BROADCAST TEXT
NATIONAL WEATHER SERVICE BISMARCK ND
1200 PM CST TUE JAN 24 2017

NOTE: "FAIR" INDICATES FEW OR NO CLOUDS BELOW 12,000 FEET WITH NO
SIGNIFICANT WEATHER AND/OR OBSTRUCTIONS TO VISIBILITY.


CITY           SKY/WX    TMP DP  RH WIND       PRES   REMARKS
WILLISTON      LGT SNOW  20  15  81 NW7       29.92S WCI  11
MINOT          CLOUDY    23  17  78 W12       29.87F WCI  12
MINOT AFB      CLOUDY    21  16  81 NW18      29.86F WCI   6
BISMARCK       CLOUDY    26  18  71 NW10      29.90S WCI  16
DICKINSON      CLOUDY    21  15  78 NW12      29.84S WCI   9
GARRISON         N/A     23  18  81 NW13      29.87S WCI  11
HETTINGER ARPT CLOUDY    20  17  88 N12       29.87S WCI   8
JAMESTOWN      CLOUDY    24  19  81 NW12      29.85F WCI  13
CARRINGTON     CLOUDY    23  21  93 NW13      29.87F WCI  11
HAZEN          CLOUDY   N/A N/A N/A NW10      29.90F
MANDAN         CLOUDY    23  18  80 NW8       29.89S WCI  14
RUGBY            N/A     21  19  93 NW13      29.86F WCI   9
STANLEY        CLOUDY    19  19 100 NW10      29.89R WCI   8
TIOGA          FLURRIES  18  18 100 NW13      29.89S WCI   4
WATFORD CITY   CLOUDY    19  14  79 NW9       29.91R WCI   9
$$

CITY           SKY/WX    TMP DP  RH WIND       PRES   REMARKS
GRAND FORKS    CLOUDY    28  21  75 W3        29.87F
GRAND FORKS AF CLOUDY    28  21  77 NW8       29.87F WCI  20
DEVILS LAKE    CLOUDY    22  19  89 W10       29.86F WCI  11
FARGO          CLOUDY    28  22  78 NW6       29.89F
CAVALIER       CLOUDY    28  23  80 W5        29.87R
GRAFTON        CLOUDY    27  23  86 W6        29.89F WCI  20
GWINNER        CLOUDY    30  28  93 N10       29.87F
ROLLA            N/A    N/A N/A N/A MISG        N/A
$$

CITY           SKY/WX    TMP DP  RH WIND       PRES   REMARKS
ABERDEEN       LGT SNOW  28  24  85 NE13      29.85F FOG     WCI  17
MOBRIDGE       LGT SNOW  25  18  74 N15       29.82F WCI  13
BUFFALO          N/A     22  19  89 N12       29.78S WCI  10
RAPID CITY     LGT SNOW  21  18  88 NW18      29.78S VSB 3/4 WCI   6
GLASGOW        LGT SNOW  20  17  88 NW13      29.93R FOG     WCI   7
SIDNEY         FLURRIES  22  16  78 NW10      29.93R WCI  11
WOLF POINT     FLURRIES  22  17  81 W7        29.94S WCI  13
GLENDIVE       FLURRIES  20  16  84 W7        29.92R WCI  11
MILES CITY     CLOUDY    22  16  78 NW9       29.92R WCI  12
BAKER          CLOUDY    19  15  84 NW10      29.89R WCI   7
$$

CITY           SKY/WX    TMP DP  RH WIND       PRES   REMARKS
BILLINGS       CLOUDY    20  17  88 E5        29.89R WCI  13
GREAT FALLS    FAIR      18  12  77 SW9       29.89R WCI   7
REGINA         FLURRIES  16  12  86 NW12      29.91S WCI   3
ESTEVAN        FLURRIES  16  14  93 W14       29.90R WCI   1
$$





USA.gov is the U.S. government's official web portal to all federal, state and local government web resources and services.